Flag for U.S.A. Weather past 2 weeks in Shiprock, New Mexico, U.S.A.

Now
42 °F

Passing clouds.


Feels Like: 40 °F
Forecast: 39 / 68 °F
Wind: 3 mph from Northeast

Location: Four Corners Regional Airport

Current Time: Apr 27, 2015 at 4:02:41 AM

Latest Report: Apr 27, 2015 at 2:53 AM


Visibility: 10 mi

Pressure: 29.87 "Hg

Humidity: 92%

Dew point: 40 °F

Location of ShiprockLocation

Historic Weather in Shiprock — Graph

°F

Shiprock temperature yesterday

Maximum temperature yesterday: 52 °F (at 1:53 PM)
Minimum temperature yesterday: 41 °F (at 4:00 AM)
Average temperature yesterday: 46 °F

Past Weeks' High & Low Weather Summary

 TemperatureHumidityPressure
High73 °F (Apr 14, 2:53 PM)100% (Apr 18, 12:53 AM)30.14 "Hg (Apr 18, 12:53 AM)
Low22 °F (Apr 17, 5:53 AM)6% (Apr 12, 3:53 PM)29.66 "Hg (Apr 26, 5:53 AM)
Average50 °F41%29.88 "Hg
* Reported Apr 12 2:53 AM — Apr 27 2:53 AM, Shiprock, Weather by CustomWeather, © 2015

Note: Actual official high and low records may vary slightly from our data, if they occured in-between our weather recording intervals... More about our weather records

Advertising

Shiprock weather history for previous 24 hours

 ConditionsComfort  
Time TempWeatherWind HumidityBarometerVisibility
2:53 AM
Mon, Apr 27
42 °FPassing clouds.3 mph92%29.87 "Hg10 mi
1:53 AM43 °FPassing clouds.6 mph93%29.85 "Hg10 mi
12:53 AM44 °FOvercast.3 mph93%29.84 "Hg10 mi
11:53 PM
Sun, Apr 26
44 °FOvercast.6 mph93%29.83 "Hg10 mi
10:53 PM45 °FOvercast.5 mph93%29.82 "Hg10 mi
9:53 PM45 °FClear.5 mph90%29.80 "Hg10 mi
8:53 PM47 °FMostly cloudy.No wind83%29.75 "Hg10 mi
7:53 PM47 °FLight rain. Cloudy.5 mph83%29.74 "Hg10 mi
6:53 PM47 °FLight rain. Overcast.14 mph83%29.71 "Hg10 mi
5:53 PM46 °FLight rain. Mostly cloudy.7 mph89%29.73 "Hg10 mi
4:59 PM45 °FLight rain. Mostly cloudy.9 mph82%29.76 "Hg4 mi
3:53 PM51 °FLight rain. Mostly cloudy.7 mph66%29.68 "Hg10 mi
2:53 PM50 °FLight rain. Mostly cloudy.12 mph71%29.69 "Hg10 mi
1:53 PM52 °FBroken clouds.10 mph59%29.67 "Hg10 mi
12:53 PM49 °FOvercast.9 mph66%29.68 "Hg10 mi
11:53 AM47 °FLight rain. Overcast.13 mph74%29.70 "Hg10 mi
10:53 AM47 °FMostly cloudy.3 mph69%29.69 "Hg10 mi
9:53 AM47 °FMore clouds than sun.5 mph69%29.67 "Hg10 mi
8:53 AM46 °FOvercast.3 mph73%29.67 "Hg10 mi
7:53 AM43 °FMostly cloudy.3 mph86%29.67 "Hg10 mi
6:53 AM42 °FOvercast.No wind82%29.67 "Hg10 mi
5:53 AM42 °FPassing clouds.5 mph89%29.66 "Hg10 mi
4:53 AM42 °FOvercast.3 mph89%29.67 "Hg10 mi
4:00 AM41 °FMostly cloudy.3 mph93%29.75 "Hg10 mi
Weather by CustomWeather, © 2015

See weather overviewHow to use our weather pages